Location: *
(35.2348°S, 91.3916°E)
Time: 07:35:54
(UTC+00:00)

PSLV R/B - Pass Details

Date: 23 October 2019
Orbit: 503 x 581 km, 97.8° (Epoch: 18 November)

Event Time Altitude Azimuth Distance (km) Brightness Sun altitude
Rises 22:10:47 0° 9° (N) 2,649 7.2 -10.6°
Reaches altitude 10° 22:12:51 10° 7° (N) 1,780 6.3 -10.2°
Maximum altitude 22:16:41 74° 282° (WNW) 573 3.7 -9.5°
Drops below altitude 10° 22:20:42 10° 196° (SSW) 1,855 6.6 -8.7°
Sets 22:22:53 0° 194° (SSW) 2,771 7.5 -8.3°
